EW5697 Weather Reports


Display with metric or nautical units.
time (UTC)temp
F
wind
direction
speed
MPH
gust
MPH
rain 1hr
in
rain 24hr
in
rain mn
in
humidity
%
barometer
mb
20260903013022 52 141 0.0 0.0 0.01 0.04 0.04 91 1016.0
20260903011516 52 135 0.0 2.0 0.02 0.04 0.04 90 1016.2
20260903010016 53 139 0.0 7.0 0.01 0.03 0.03 90 1016.1
20260903004528 53 115 0.0 5.0 0.01 0.03 0.03 90 1016.3
20260903003015 53 162 0.0 3.0 0.01 0.03 0.03 90 1016.0
20260903001514 52 128 0.0 2.0 0.00 0.02 0.02 88 1016.2
20260903000016 53 159 0.0 11.0 0.00 0.02 0.02 88 1016.3
20260902234513 53 117 0.0 3.0 0.00 0.02 0.02 88 1016.1
20260902233010 53 141 0.0 10.0 0.00 0.02 0.02 89 1016.3
20260902231513 53 165 0.0 9.0 0.00 0.02 0.02 89 1016.4
20260902230010 53 149 0.0 3.0 0.00 0.02 0.02 89 1016.7
20260902224508 52 143 0.0 6.0 0.00 0.02 0.02 88 1016.9
20260902223006 52 114 0.0 9.0 0.00 0.02 0.02 89 1016.9
20260902221505 52 138 0.0 10.0 0.00 0.02 0.02 89 1017.0
20260902220007 52 142 0.0 9.0 0.00 0.02 0.02 90 1017.1
20260902214504 52 122 0.0 1.0 0.00 0.02 0.02 89 1017.2
20260902213007 51 128 0.0 17.0 0.00 0.02 0.02 89 1017.5
20260902211505 51 180 0.0 4.0 0.00 0.02 0.02 89 1017.4
20260902210004 51 112 0.0 11.0 0.00 0.02 0.02 90 1017.2
20260902204501 51 160 0.0 19.0 0.00 0.02 0.02 90 1017.2
20260902203126 51 154 0.0 3.0 0.00 0.02 0.02 91 1016.9
20260902203003 51 108 0.0 3.0 0.00 0.02 0.02 91 1016.9
20260902201556 50 218 0.0 8.0 0.00 0.02 0.02 90 1017.0
20260902200059 50 135 0.0 10.0 0.00 0.02 0.02 91 1016.9
20260902194556 50 156 0.0 8.0 0.00 0.02 0.02 91 1017.0
20260902193057 49 188 0.0 10.0 0.00 0.02 0.02 91 1017.1
20260902191555 49 143 0.0 7.0 0.00 0.02 0.02 91 1017.3
20260902190051 48 125 0.0 19.0 0.00 0.02 0.02 92 1017.2
20260902184558 48 134 0.0 8.0 0.01 0.02 0.02 91 1017.2
20260902183056 48 185 0.0 17.0 0.01 0.02 0.02 91 1017.2
20260902181548 48 170 0.0 5.0 0.02 0.02 0.02 91 1017.0
20260902180045 48 241 0.0 14.0 0.02 0.02 0.02 91 1017.0
20260902174546 48 134 0.0 20.0 0.01 0.01 0.01 91 1016.9
20260902173042 49 212 0.0 12.0 0.01 0.01 0.01 90 1016.7
20260902171542 49 142 0.0 6.0 0.00 0.00 0.00 90 1016.7
20260902170045 49 137 0.0 3.0 0.00 0.00 0.00 90 1016.7
20260902164541 49 159 0.0 6.0 0.00 0.00 0.00 90 1016.5
20260902163050 49 18 0.0 4.0 0.00 0.00 0.00 90 1016.4
20260902161535 49 159 0.0 4.0 0.00 0.00 0.00 90 1015.9
20260902160035 49 148 0.0 10.0 0.00 0.00 0.00 90 1015.8
20260902154535 48 191 0.0 9.0 0.00 0.00 0.00 90 1015.7
20260902153032 48 151 0.0 4.0 0.00 0.00 0.00 91 1016.0
20260902151530 48 162 0.0 9.0 0.00 0.00 0.00 90 1016.1
20260902150029 48 120 0.0 1.0 0.00 0.00 0.00 90 1015.8
20260902144537 48 166 0.0 8.0 0.00 0.00 0.00 90 1015.9
20260902143025 48 160 0.0 20.0 0.00 0.00 0.00 90 1015.9
20260902141522 48 141 0.0 21.0 0.00 0.00 0.00 90 1015.7
20260902140021 48 151 0.0 4.0 0.00 0.00 0.00 89 1015.8
20260902134520 49 119 0.0 8.0 0.00 0.00 0.00 89 1015.6
20260902133018 49 197 0.0 5.0 0.00 0.00 0.00 88 1015.8
20260902131516 49 105 0.0 12.0 0.00 0.00 0.00 87 1015.7
20260902130014 50 212 0.0 11.0 0.00 0.00 0.00 86 1015.8
20260902124514 50 157 0.0 4.0 0.00 0.00 0.00 86 1015.7
20260902123013 50 154 0.0 3.0 0.00 0.00 0.00 86 1015.7
20260902121511 50 127 0.0 0.0 0.00 0.00 0.00 86 1015.8
20260902120012 50 160 0.0 3.0 0.00 0.00 0.00 86 1016.1
20260902114514 50 171 0.0 1.0 0.00 0.00 0.00 86 1015.9
20260902113013 50 197 0.0 1.0 0.00 0.00 0.00 86 1015.9
20260902111509 51 140 0.0 1.0 0.00 0.00 0.00 85 1015.9
20260902110016 51 172 0.0 8.0 0.00 0.00 0.00 85 1015.8
20260902104506 51 157 0.0 4.0 0.00 0.00 0.00 84 1015.7
20260902103004 52 151 0.0 3.0 0.00 0.00 0.00 83 1015.8
20260902101504 52 126 0.0 1.0 0.00 0.00 0.00 83 1015.9
20260902100003 52 160 0.0 1.0 0.00 0.00 0.00 83 1016.0
20260902094502 52 207 0.0 2.0 0.00 0.00 0.00 83 1016.1
20260902093001 52 160 0.0 1.0 0.00 0.00 0.00 83 1016.0
20260902091604 52 173 0.0 4.0 0.00 0.00 0.00 83 1016.1
20260902090100 52 159 0.0 1.0 0.00 0.00 0.00 83 1016.3
20260902084558 52 145 0.0 1.0 0.00 0.00 0.00 82 1016.1
20260902083119 52 158 0.0 4.0 0.00 0.00 0.00 81 1016.1
20260902081555 52 141 0.0 0.0 0.00 0.00 0.00 81 1016.0
20260902080056 52 148 0.0 2.0 0.00 0.00 0.00 81 1016.0
20260902074604 52 138 0.0 3.0 0.00 0.00 0.00 80 1015.7
20260902073049 52 140 0.0 2.0 0.00 0.00 0.00 80 1015.5
20260902071548 52 147 0.0 2.0 0.00 0.00 0.00 80 1015.4
20260902070047 52 160 0.0 2.0 0.00 0.00 0.00 78 1015.5
20260902064551 52 141 0.0 4.0 0.00 0.00 0.00 77 1015.5
20260902063056 53 135 0.0 1.0 0.00 0.00 0.00 75 1015.5
20260902061547 53 131 0.0 2.0 0.00 0.00 0.00 74 1015.6
20260902060043 53 207 0.0 1.0 0.00 0.00 0.00 73 1015.5
20260902054546 53 149 0.0 9.0 0.00 0.00 0.00 72 1015.7
20260902053041 53 142 0.0 8.0 0.00 0.00 0.00 72 1015.5
20260902051545 53 143 0.0 8.0 0.00 0.00 0.00 70 1015.7
20260902050057 53 168 0.0 4.0 0.00 0.00 0.00 70 1015.6
20260902044539 53 171 0.0 4.0 0.00 0.00 0.00 68 1015.5
20260902043045 53 141 0.0 3.0 0.00 0.00 0.00 68 1015.3
20260902041537 53 180 0.0 2.0 0.00 0.00 0.00 67 1015.3
20260902040038 54 197 0.0 4.0 0.00 0.00 0.00 67 1015.4
20260902034536 54 139 0.0 18.0 0.00 0.00 0.00 67 1015.0
20260902033034 54 156 0.0 3.0 0.00 0.00 0.00 66 1015.0
20260902031533 54 153 0.0 13.0 0.00 0.00 0.00 65 1015.0
20260902030031 55 166 0.0 5.0 0.00 0.00 0.00 63 1014.7
20260902024531 55 212 0.0 10.0 0.00 0.00 0.00 62 1014.5
20260902023028 56 153 0.0 14.0 0.00 0.00 0.00 61 1014.3
20260902021528 56 202 0.0 6.0 0.00 0.00 0.00 58 1014.3
20260902020028 57 212 0.0 8.0 0.00 0.00 0.00 56 1014.0
20260902014527 58 136 0.0 6.0 0.00 0.00 0.00 55 1014.0